FW3743 Weather Reports


Display with metric or nautical units.
time (UTC)temp
F
wind
direction
speed
MPH
gust
MPH
rain 1hr
in
rain 24hr
in
rain mn
in
humidity
%
barometer
mb
20260906174234 74 0.0 0.0 0.00 0.00 0.00 59 1017.9
20260906173253 76 323 1.0 11.0 0.00 0.00 0.00 59 1017.0
20260906172254 73 100 0.0 2.0 0.00 0.00 0.00 60 1017.9
20260906171233 74 346 2.0 8.0 0.00 0.00 0.00 60 1017.1
20260906170234 74 79 0.0 4.0 0.00 0.00 0.00 64 1017.9
20260906165234 73 0.0 0.0 0.00 0.00 0.00 63 1017.2
20260906164234 74 356 0.0 2.0 0.00 0.00 0.00 65 1017.9
20260906163232 73 73 0.0 1.0 0.00 0.00 0.00 65 1017.5
20260906162233 71 328 0.0 2.0 0.00 0.00 0.00 69 1018.1
20260906161232 72 344 3.0 10.0 0.00 0.00 0.00 68 1017.4
20260906160253 73 0.0 0.0 0.00 0.00 0.00 68 1018.1
20260906155232 73 88 0.0 5.0 0.00 0.00 0.00 68 1018.4
20260906154234 72 0.0 0.0 0.00 0.00 0.00 69 1018.4
20260906153232 72 110 0.0 1.0 0.00 0.00 0.00 69 1018.5
20260906152233 72 0.0 0.0 0.00 0.00 0.00 70 1018.4
20260906151232 70 340 0.0 2.0 0.00 0.00 0.00 72 1018.6
20260906150233 72 0.0 0.0 0.00 0.00 0.00 70 1018.5
20260906145232 71 346 0.0 2.0 0.00 0.00 0.00 71 1018.5
20260906144234 70 0.0 0.0 0.00 0.00 0.00 73 1018.5
20260906143233 70 0.0 0.0 0.00 0.00 0.00 74 1018.4
20260906142234 69 92 0.0 2.0 0.00 0.00 0.00 75 1018.3
20260906141232 69 0.0 0.0 0.00 0.00 0.00 77 1018.3
20260906140234 70 0.0 0.0 0.00 0.00 0.00 77 1018.0
20260906135232 68 0.0 0.0 0.00 0.00 0.00 81 1018.5
20260906134234 67 0.0 0.0 0.00 0.00 0.00 84 1018.2
20260906133232 67 0.0 0.0 0.00 0.00 0.00 83 1018.4
20260906132234 68 0.0 0.0 0.00 0.00 0.00 82 1018.2
20260906131232 65 0.0 0.0 0.00 0.00 0.00 88 1018.4
20260906130234 65 0.0 0.0 0.00 0.00 0.00 89 1018.3
20260906125232 65 56 0.0 2.0 0.00 0.00 0.00 89 1018.4
20260906124234 64 0.0 0.0 0.00 0.00 0.00 91 1018.1
20260906123232 63 0.0 0.0 0.00 0.00 0.00 94 1018.3
20260906122234 61 0.0 0.0 0.00 0.00 0.00 98 1018.1
20260906121232 59 0.0 0.0 0.00 0.00 0.00 99 1018.4
20260906120234 59 278 0.0 1.0 0.00 0.00 0.00 99 1018.0
20260906115232 59 0.0 0.0 0.00 0.00 0.00 99 1018.2
20260906114314 58 0.0 0.0 0.00 0.00 0.00 99 1017.8
20260906113253 58 0.0 0.0 0.00 0.00 0.00 99 1018.0
20260906112254 57 0.0 0.0 0.00 0.00 0.00 99 1017.5
20260906111232 57 0.0 0.0 0.00 0.00 0.00 99 1017.5
20260906110234 57 0.0 0.0 0.00 0.00 0.00 99 1017.2
20260906105232 57 0.0 0.0 0.00 0.00 0.00 99 1017.3
20260906104234 57 0.0 0.0 0.00 0.00 0.00 99 1016.9
20260906103232 57 0.0 0.0 0.00 0.00 0.00 99 1016.8
20260906102234 57 0.0 0.0 0.00 0.00 0.00 99 1016.9
20260906101233 57 0.0 0.0 0.00 0.00 0.00 99 1016.8
20260906100234 58 0.0 0.0 0.00 0.00 0.00 99 1016.4
20260906095252 58 0.0 0.0 0.00 0.00 0.00 99 1016.6
20260906094234 58 0.0 0.0 0.00 0.00 0.00 99 1016.4
20260906093232 58 0.0 0.0 0.00 0.00 0.00 99 1016.3
20260906092234 58 0.0 0.0 0.00 0.00 0.00 99 1015.9
20260906091232 59 0.0 0.0 0.00 0.00 0.00 99 1016.0
20260906090234 58 0.0 0.0 0.00 0.00 0.00 99 1015.8
20260906085233 58 0.0 0.0 0.00 0.00 0.00 99 1015.6
20260906084234 58 0.0 0.0 0.00 0.00 0.00 99 1015.7
20260906083232 59 0.0 0.0 0.00 0.00 0.00 99 1015.6
20260906082234 59 0.0 0.0 0.00 0.00 0.00 99 1015.2
20260906081232 59 0.0 0.0 0.00 0.00 0.00 99 1015.5
20260906080255 60 0.0 0.0 0.00 0.00 0.00 99 1015.2
20260906075233 60 0.0 0.0 0.00 0.00 0.00 99 1015.3
20260906074234 61 0.0 0.0 0.00 0.00 0.00 99 1015.0
20260906073232 60 0.0 0.0 0.00 0.00 0.00 99 1015.5
20260906072234 60 0.0 0.0 0.00 0.00 0.00 99 1015.1
20260906071253 61 0.0 0.0 0.00 0.00 0.00 99 1015.3
20260906070235 61 0.0 0.0 0.00 0.00 0.00 99 1014.9
20260906065332 61 0.0 0.0 0.00 0.00 0.00 99 1015.1
20260906064234 62 0.0 0.0 0.00 0.00 0.00 99 1014.9
20260906063233 62 0.0 0.0 0.00 0.00 0.00 99 1015.2
20260906062234 63 0.0 0.0 0.00 0.00 0.00 99 1015.1
20260906061232 63 0.0 0.0 0.00 0.00 0.00 99 1015.3
20260906060255 63 0.0 0.0 0.00 0.00 0.00 99 1015.1
20260906055233 63 0.0 0.0 0.00 0.00 0.00 99 1015.4
20260906054234 63 0.0 0.0 0.00 0.00 0.00 99 1015.3
20260906053232 64 0.0 0.0 0.00 0.00 0.00 99 1015.4
20260906052234 64 0.0 0.0 0.00 0.00 0.00 99 1015.1
20260906051232 64 0.0 0.0 0.00 0.00 0.00 99 1015.2
20260906050234 64 0.0 0.0 0.00 0.00 0.00 99 1015.0
20260906045233 64 0.0 0.0 0.00 0.00 0.00 99 1015.3
20260906044234 64 0.0 0.0 0.00 0.00 0.00 99 1015.2
20260906043352 64 0.0 0.0 0.00 0.00 0.00 99 1015.5
20260906042235 64 0.0 0.0 0.00 0.00 0.00 99 1015.4
20260906041232 64 0.0 0.0 0.00 0.00 0.00 99 1015.5
20260906040315 64 0.0 0.0 0.00 0.00 0.00 99 1015.5
20260906035234 64 0.0 0.0 0.00 0.00 0.00 99 1015.4
20260906034254 64 0.0 0.0 0.00 0.00 0.00 99 1015.2
20260906033234 64 0.0 0.0 0.00 0.00 0.00 99 1015.2
20260906032235 64 0.0 0.0 0.00 0.00 0.00 99 1014.9
20260906031234 64 0.0 0.0 0.00 0.00 0.00 99 1015.2
20260906030254 63 0.0 0.0 0.00 0.00 0.00 99 1015.0
20260906025235 63 0.0 0.0 0.00 0.00 0.00 99 1015.0
20260906024234 63 0.0 0.0 0.00 0.00 0.00 99 1014.8
20260906023234 63 0.0 0.0 0.00 0.00 0.00 99 1015.1
20260906022234 63 0.0 0.0 0.00 0.00 0.00 99 1015.0
20260906021234 63 0.0 0.0 0.00 0.00 0.00 98 1014.9
20260906020303 64 0.0 0.0 0.00 0.00 0.00 97 1014.7
20260906015234 64 0.0 0.0 0.00 0.00 0.00 97 1014.9
20260906014234 64 0.0 0.0 0.00 0.00 0.00 96 1014.6
20260906013234 65 0.0 0.0 0.00 0.00 0.00 95 1014.8
20260906012235 65 0.0 0.0 0.00 0.00 0.00 94 1014.7
20260906011234 66 0.0 0.0 0.00 0.00 0.00 94 1014.6
20260906010235 66 0.0 0.0 0.00 0.00 0.00 94 1014.5
20260906005234 66 0.0 0.0 0.00 0.00 0.00 93 1014.7
20260906004235 66 0.0 0.0 0.00 0.00 0.00 93 1014.5
20260906003254 66 0.0 0.0 0.00 0.00 0.00 93 1014.5
20260906002235 66 0.0 0.0 0.00 0.00 0.00 91 1014.4
20260906001254 67 0.0 0.0 0.00 0.00 0.00 91 1014.4
20260906000256 67 0.0 0.0 0.00 0.00 0.00 89 1014.2
20260905235234 68 0.0 0.0 0.00 0.00 0.00 88 1014.5
20260905234235 69 0.0 0.0 0.00 0.00 0.00 86 1014.2
20260905233235 69 0.0 0.0 0.00 0.00 0.00 85 1014.4
20260905232255 70 0.0 0.0 0.00 0.00 0.00 84 1014.0
20260905231234 70 0.0 0.0 0.00 0.00 0.00 82 1014.2
20260905230255 72 18 0.0 1.0 0.00 0.00 0.00 79 1013.8
20260905225234 72 0.0 0.0 0.00 0.00 0.00 79 1014.1
20260905224235 73 38 0.0 5.0 0.00 0.00 0.00 78 1014.1
20260905223234 73 324 0.0 1.0 0.00 0.00 0.00 77 1014.2
20260905222235 73 357 0.0 1.0 0.00 0.00 0.00 76 1013.9
20260905221234 74 4 3.0 12.0 0.00 0.00 0.00 76 1014.1
20260905220235 74 42 0.0 8.0 0.00 0.00 0.00 76 1013.8
20260905215254 74 354 3.0 12.0 0.00 0.00 0.00 75 1014.1
20260905214235 75 8 1.0 10.0 0.00 0.00 0.00 74 1013.4
20260905213234 75 347 0.0 1.0 0.00 0.00 0.00 74 1013.6
20260905212235 75 28 0.0 2.0 0.00 0.00 0.00 73 1013.1
20260905211234 75 10 0.0 2.0 0.00 0.00 0.00 72 1013.7
20260905210235 75 0.0 0.0 0.00 0.00 0.00 72 1013.3
20260905205234 75 2 0.0 5.0 0.00 0.00 0.00 72 1013.5
20260905204235 76 349 1.0 8.0 0.00 0.00 0.00 72 1013.3
20260905203234 76 296 2.0 11.0 0.00 0.00 0.00 72 1013.6
20260905202235 75 315 4.0 11.0 0.00 0.00 0.00 73 1013.2
20260905201235 75 352 3.0 8.0 0.00 0.00 0.00 73 1013.6
20260905200235 74 318 0.0 7.0 0.00 0.00 0.00 75 1013.2
20260905195234 76 10 3.0 10.0 0.00 0.00 0.00 73 1013.8
20260905194235 77 334 3.0 14.0 0.00 0.00 0.00 71 1013.1
20260905193254 77 357 2.0 7.0 0.00 0.00 0.00 71 1013.6
20260905192235 77 343 2.0 11.0 0.00 0.00 0.00 72 1013.0
20260905191234 73 335 3.0 8.0 0.00 0.00 0.00 76 1013.7
20260905190255 76 22 1.0 5.0 0.00 0.00 0.00 72 1013.1
20260905185254 75 8 0.0 8.0 0.00 0.00 0.00 73 1013.5
20260905184255 77 277 0.0 5.0 0.00 0.00 0.00 72 1012.9
20260905183234 76 12 0.0 1.0 0.00 0.00 0.00 73 1013.6
20260905182235 76 347 1.0 7.0 0.00 0.00 0.00 70 1013.1
20260905181234 78 0.0 0.0 0.00 0.00 0.00 70 1013.5
20260905180235 75 324 0.0 4.0 0.00 0.00 0.00 73 1013.1
20260905175234 76 15 0.0 5.0 0.00 0.00 0.00 70 1013.3